Location: *
(47.6569°N, 7.4256°E)
Time: 08:08:26
(UTC+00:00)

Cosmos 2221 Rocket - Pass Details

Date: 14 December 2019
Orbit: 621 x 648 km, 82.5° (Epoch: 22 January)

Event Time Altitude Azimuth Distance (km) Brightness Sun altitude
Rises 18:08:28 0° 199° (SSW) 2,918 7.4 -24.1°
Reaches altitude 10° 18:10:45 10° 204° (SSW) 2,010 6.6 -24.5°
Maximum altitude 18:15:07 55° 283° (WNW) 762 4.2 -25.2°
Enters shadow 18:17:03 31° 346° (NNW) 1,120 4.9 -25.5°
